This demonstration page uses our WeatherBlox Daily Observations layout. Learn more.

Left ArrowRight Arrow

34.74481, -87.66753

Hourly Observations for July 5, 2020

Temp ( °F °C ) Dew Point ( °F °C ) Humidity (%) Winds ( mph kmh ) Pressure ( in mb ) Visibility ( mi km ) Precip ( " mm )
12:53 am 00:53 Clear 77 25 73 22.8 88 88 SW 3 6 29.88 1012 10 16 0.00 0.00
1:53 am 01:53 Clear 76 24.4 72 22.2 88 88 Calm 29.88 1012 10 16 0.00 0.00
2:53 am 02:53 Clear 75 23.9 72 22.2 90 90 Calm 29.87 1012 10 16 0.00 0.00
3:53 am 03:53 Clear 74 23.3 71 21.7 91 91 Calm 29.88 1012 9 14 0.00 0.00
4:53 am 04:53 Clear 75 23.9 71 21.7 88 88 Calm 29.89 1012 10 16 0.00 0.00
5:53 am 05:53 Sunny with Mist and Fog 74 23.3 71 21.7 91 91 Calm 29.91 1013 5 8 0.00 0.00
6:53 am 06:53 Mostly Sunny 76 24.4 72 22.2 88 88 Calm 29.92 1013 10 16 0.00 0.00
7:53 am 07:53 Sunny 77 25 73 22.8 88 88 Calm 29.93 1014 10 16 0.00 0.00
8:53 am 08:53 Partly Cloudy 82 27.8 74 23.3 77 77 Calm 29.94 1014 10 16 0.00 0.00
9:53 am 09:53 Mostly Cloudy 86 30 74 23.3 67 67 Calm 29.94 1014 10 16 0.00 0.00
10:53 am 10:53 Partly Cloudy 88 31.1 72 22.2 59 59 Calm 29.94 1014 10 16 0.00 0.00
11:53 am 11:53 Sunny 89 31.7 71 21.7 55 55 Calm 29.93 1014 10 16 0.00 0.00
12:53 pm 12:53 Sunny 91 32.8 73 22.8 56 56 Calm 29.92 1013 10 16 0.00 0.00
1:53 pm 13:53 Cloudy 89 31.7 74 23.3 61 61 ENE 3 6 29.89 1012 10 16 0.00 0.00
2:53 pm 14:53 Sunny 92 33.3 72 22.2 52 52 Calm 29.87 1012 10 16 0.00 0.00
3:53 pm 15:53 Mostly Sunny 90 32.2 75 23.9 62 62 SSW 8 13 29.84 1011 10 16 0.00 0.00
4:53 pm 16:53 Sunny 85 29.4 73 22.8 68 68 WSW 6 9 29.86 1011 10 16 0.00 0.00
5:27 pm 17:27 Sunny with Nearby Thunderstorms 86 30 74 23.3 67 67 W 6 9 29.85 1011 10 16 0.00 0.00
5:42 pm 17:42 Sunny 86 30 74 23.3 67 67 WNW 5 7 29.85 1011 10 16 0.00 0.00
5:53 pm 17:53 Sunny 85 29.4 74 23.3 70 70 NNW 9 15 29.87 1011 10 16 0.00 0.00
6:04 pm 18:04 Sunny with Nearby Thunderstorms 84 28.9 73 22.8 70 70 NW 7 11 29.87 1012 10 16 0.00 0.00
6:36 pm 18:36 Mostly Cloudy 84 28.9 73 22.8 70 70 Calm 29.88 1012 10 16 0.00 0.00
6:53 pm 18:53 Mostly Cloudy 82 27.8 68 20 63 63 NE 8 13 29.90 1013 10 16 0.00 0.00
7:53 pm 19:53 Sunny 79 26.1 69 20.6 72 72 Calm 29.91 1013 10 16 0.00 0.00
8:26 pm 20:26 Mostly Cloudy with Thunderstorms 78 25.6 66 18.9 67 67 E 14 22 29.96 1014 10 16 0.00 0.00
8:41 pm 20:41 Cloudy with Nearby Thunderstorms 76 24.4 69 20.6 79 79 E 13 20 29.97 1015 5 8 0.09 2.29
8:53 pm 20:53 Cloudy with Nearby Thunderstorms 74 23.3 70 21.1 88 88 ENE 12 19 29.96 1015 4 6 0.25 6.35
9:05 pm 21:05 Cloudy with Strong Thunderstorms 73 22.8 70 21.1 90 90 NNE 10 17 29.94 1014 5 8 0.07 1.78
9:20 pm 21:20 Mostly Cloudy with Light Rain 73 22.8 69 20.6 87 87 NNE 7 11 29.94 1014 10 16 0.08 2.03
9:53 pm 21:53 Mostly Clear with Light Rain 73 22.8 69 20.6 87 87 WSW 7 11 29.92 1013 10 16 0.11 2.79
10:53 pm 22:53 Clear 73 22.8 71 21.7 94 94 S 6 9 29.92 1013 10 16 0.01 0.25
11:53 pm 23:53 Clear 73 22.8 71 21.7 94 94 Calm 29.93 1013 10 16 0.00 0.00

Powered by AerisWeather